Year,Month,Day,Hour,Minute,Value (Times are PST for temperature in C)
2016,09,22,00,00,13.10
2016,09,22,00,01,13.10
2016,09,22,00,02,13.10
2016,09,22,00,03,13.00
2016,09,22,00,04,12.90
2016,09,22,00,05,12.80
2016,09,22,00,06,12.80
2016,09,22,00,07,12.80
2016,09,22,00,08,12.80
2016,09,22,00,09,12.80
2016,09,22,00,10,12.80
2016,09,22,00,11,12.80
2016,09,22,00,12,12.80
2016,09,22,00,13,12.70
2016,09,22,00,14,12.70
2016,09,22,00,15,12.60
2016,09,22,00,16,12.50
2016,09,22,00,17,12.40
2016,09,22,00,18,12.30
2016,09,22,00,19,12.30
2016,09,22,00,20,12.40
2016,09,22,00,21,12.50
2016,09,22,00,22,12.50
2016,09,22,00,23,12.50
2016,09,22,00,24,12.50
2016,09,22,00,25,12.40
2016,09,22,00,26,12.40
2016,09,22,00,27,12.30
2016,09,22,00,28,12.30
2016,09,22,00,29,12.30
2016,09,22,00,30,12.20
2016,09,22,00,31,12.20
2016,09,22,00,32,12.10
2016,09,22,00,33,12.10
2016,09,22,00,34,12.00
2016,09,22,00,35,12.00
2016,09,22,00,36,11.90
2016,09,22,00,37,11.90
2016,09,22,00,38,12.00
2016,09,22,00,39,12.10
2016,09,22,00,40,12.20
2016,09,22,00,41,12.30
2016,09,22,00,42,12.30
2016,09,22,00,43,12.40
2016,09,22,00,44,12.40
2016,09,22,00,45,12.40
2016,09,22,00,46,12.30
2016,09,22,00,47,12.30
2016,09,22,00,48,12.20
2016,09,22,00,49,12.10
2016,09,22,00,50,12.10
2016,09,22,00,51,12.00
2016,09,22,00,52,11.90
2016,09,22,00,53,11.80
2016,09,22,00,54,11.80
2016,09,22,00,55,11.70
2016,09,22,00,56,11.60
2016,09,22,00,57,11.60
2016,09,22,00,58,11.50
2016,09,22,00,59,11.40
2016,09,22,01,00,11.40
2016,09,22,01,01,11.30
2016,09,22,01,02,11.30
2016,09,22,01,03,11.40
2016,09,22,01,04,11.50
2016,09,22,01,05,11.50
2016,09,22,01,06,11.60
2016,09,22,01,07,11.60
2016,09,22,01,08,11.70
2016,09,22,01,09,11.70
2016,09,22,01,10,11.70
2016,09,22,01,11,11.70
2016,09,22,01,12,11.70
2016,09,22,01,13,11.70
2016,09,22,01,14,11.70
2016,09,22,01,15,11.70
2016,09,22,01,16,11.70
2016,09,22,01,17,11.60
2016,09,22,01,18,11.60
2016,09,22,01,19,11.50
2016,09,22,01,20,11.40
2016,09,22,01,21,11.40
2016,09,22,01,22,11.40
2016,09,22,01,23,11.30
2016,09,22,01,24,11.30
2016,09,22,01,25,11.30
2016,09,22,01,26,11.30
2016,09,22,01,27,11.20
2016,09,22,01,28,11.20
2016,09,22,01,29,11.20
2016,09,22,01,30,11.20
2016,09,22,01,31,11.20
2016,09,22,01,32,11.10
2016,09,22,01,33,11.10
2016,09,22,01,34,11.10
2016,09,22,01,35,11.10
2016,09,22,01,36,11.10
2016,09,22,01,37,11.10
2016,09,22,01,38,11.00
2016,09,22,01,39,11.00
2016,09,22,01,40,11.00
2016,09,22,01,41,10.90
2016,09,22,01,42,10.90
2016,09,22,01,43,10.90
2016,09,22,01,44,10.80
2016,09,22,01,45,10.80
2016,09,22,01,46,10.80
2016,09,22,01,47,10.80
2016,09,22,01,48,10.80
2016,09,22,01,49,10.80
2016,09,22,01,50,10.70
2016,09,22,01,51,10.70
2016,09,22,01,52,10.70
2016,09,22,01,53,10.70
2016,09,22,01,54,10.70
2016,09,22,01,55,10.70
2016,09,22,01,56,10.60
2016,09,22,01,57,10.60
2016,09,22,01,58,10.60
2016,09,22,01,59,10.60
2016,09,22,02,00,10.60
2016,09,22,02,01,10.50
2016,09,22,02,02,10.50
2016,09,22,02,03,10.50
2016,09,22,02,04,10.40
2016,09,22,02,05,10.40
2016,09,22,02,06,10.40
2016,09,22,02,07,10.40
2016,09,22,02,08,10.40
2016,09,22,02,09,10.40
2016,09,22,02,10,10.40
2016,09,22,02,11,10.50
2016,09,22,02,12,10.50
2016,09,22,02,13,10.60
2016,09,22,02,14,10.70
2016,09,22,02,15,10.70
2016,09,22,02,16,10.80
2016,09,22,02,17,10.80
2016,09,22,02,18,10.90
2016,09,22,02,19,11.00
2016,09,22,02,20,11.00
2016,09,22,02,21,11.00
2016,09,22,02,22,11.00
2016,09,22,02,23,11.10
2016,09,22,02,24,11.00
2016,09,22,02,25,11.00
2016,09,22,02,26,10.90
2016,09,22,02,27,10.90
2016,09,22,02,28,10.80
2016,09,22,02,29,10.80
2016,09,22,02,30,10.80
2016,09,22,02,31,10.70
2016,09,22,02,32,10.70
2016,09,22,02,33,10.60
2016,09,22,02,34,10.60
2016,09,22,02,35,10.50
2016,09,22,02,36,10.50
2016,09,22,02,37,10.40
2016,09,22,02,38,10.40
2016,09,22,02,39,10.40
2016,09,22,02,40,10.50
2016,09,22,02,41,10.50
2016,09,22,02,42,10.50
2016,09,22,02,43,10.50
2016,09,22,02,44,10.50
2016,09,22,02,45,10.50
2016,09,22,02,46,10.40
2016,09,22,02,47,10.40
2016,09,22,02,48,10.40
2016,09,22,02,49,10.50
2016,09,22,02,50,10.60
2016,09,22,02,51,10.60
2016,09,22,02,52,10.70
2016,09,22,02,53,10.70
2016,09,22,02,54,10.70
2016,09,22,02,55,10.70
2016,09,22,02,56,10.70
2016,09,22,02,57,10.70
2016,09,22,02,58,10.80
2016,09,22,02,59,10.80
2016,09,22,03,00,10.80
2016,09,22,03,01,10.90
2016,09,22,03,02,10.90
2016,09,22,03,03,11.00
2016,09,22,03,04,11.10
2016,09,22,03,05,11.10
2016,09,22,03,06,11.30
2016,09,22,03,07,11.40
2016,09,22,03,08,11.50
2016,09,22,03,09,11.60
2016,09,22,03,10,11.70
2016,09,22,03,11,11.70
2016,09,22,03,12,11.70
2016,09,22,03,13,11.70
2016,09,22,03,14,11.70
2016,09,22,03,15,11.60
2016,09,22,03,16,11.60
2016,09,22,03,17,11.50
2016,09,22,03,18,11.40
2016,09,22,03,19,11.40
2016,09,22,03,20,11.30
2016,09,22,03,21,11.30
2016,09,22,03,22,11.20
2016,09,22,03,23,11.10
2016,09,22,03,24,11.10
2016,09,22,03,25,11.10
2016,09,22,03,26,11.10
2016,09,22,03,27,11.10
2016,09,22,03,28,11.10
2016,09,22,03,29,11.10
2016,09,22,03,30,11.10
2016,09,22,03,31,11.20
2016,09,22,03,32,11.20
2016,09,22,03,33,11.20
2016,09,22,03,34,11.20
2016,09,22,03,35,11.20
2016,09,22,03,36,11.20
2016,09,22,03,37,11.30
2016,09,22,03,38,11.30
2016,09,22,03,39,11.40
2016,09,22,03,40,11.40
2016,09,22,03,41,11.50
2016,09,22,03,42,11.60
2016,09,22,03,43,11.70
2016,09,22,03,44,11.70
2016,09,22,03,45,11.80
2016,09,22,03,46,11.80
2016,09,22,03,47,11.90
2016,09,22,03,48,11.90
2016,09,22,03,49,12.00
2016,09,22,03,50,12.00
2016,09,22,03,51,12.00
2016,09,22,03,52,12.00
2016,09,22,03,53,12.00
2016,09,22,03,54,11.90
2016,09,22,03,55,11.90
2016,09,22,03,56,11.80
2016,09,22,03,57,11.80
2016,09,22,03,58,11.70
2016,09,22,03,59,11.70
2016,09,22,04,00,11.60
2016,09,22,04,01,11.50
2016,09,22,04,02,11.40
2016,09,22,04,03,11.30
2016,09,22,04,04,11.20
2016,09,22,04,05,11.10
2016,09,22,04,06,11.10
2016,09,22,04,07,11.10
2016,09,22,04,08,11.10
2016,09,22,04,09,11.10
2016,09,22,04,10,11.10
2016,09,22,04,11,11.10
2016,09,22,04,12,11.10
2016,09,22,04,13,11.10
2016,09,22,04,14,11.10
2016,09,22,04,15,11.10
2016,09,22,04,16,11.20
2016,09,22,04,17,11.20
2016,09,22,04,18,11.20
2016,09,22,04,19,11.30
2016,09,22,04,20,11.30
2016,09,22,04,21,11.40
2016,09,22,04,22,11.40
2016,09,22,04,23,11.40
2016,09,22,04,24,11.40
2016,09,22,04,25,11.40
2016,09,22,04,26,11.40
2016,09,22,04,27,11.40
2016,09,22,04,28,11.40
2016,09,22,04,29,11.40
2016,09,22,04,30,11.40
2016,09,22,04,31,11.50
2016,09,22,04,32,11.50
2016,09,22,04,33,11.60
2016,09,22,04,34,11.60
2016,09,22,04,35,11.60
2016,09,22,04,36,11.70
2016,09,22,04,37,11.70
2016,09,22,04,38,11.70
2016,09,22,04,39,11.70
2016,09,22,04,40,11.70
2016,09,22,04,41,11.70
2016,09,22,04,42,11.70
2016,09,22,04,43,11.70
2016,09,22,04,44,11.70
2016,09,22,04,45,11.70
2016,09,22,04,46,11.70
2016,09,22,04,47,11.60
2016,09,22,04,48,11.60
2016,09,22,04,49,11.60
2016,09,22,04,50,11.60
2016,09,22,04,51,11.60
2016,09,22,04,52,11.50
2016,09,22,04,53,11.50
2016,09,22,04,54,11.40
2016,09,22,04,55,11.40
2016,09,22,04,56,11.40
2016,09,22,04,57,11.30
2016,09,22,04,58,11.30
2016,09,22,04,59,11.20
2016,09,22,05,00,11.10
2016,09,22,05,01,11.10
2016,09,22,05,02,11.00
2016,09,22,05,03,11.00
2016,09,22,05,04,10.90
2016,09,22,05,05,10.90
2016,09,22,05,06,10.90
2016,09,22,05,07,10.80
2016,09,22,05,08,10.80
2016,09,22,05,09,10.80
2016,09,22,05,10,10.90
2016,09,22,05,11,10.90
2016,09,22,05,12,11.00
2016,09,22,05,13,11.00
2016,09,22,05,14,11.00
2016,09,22,05,15,11.10
2016,09,22,05,16,11.10
2016,09,22,05,17,11.20
2016,09,22,05,18,11.20
2016,09,22,05,19,11.30
2016,09,22,05,20,11.30
2016,09,22,05,21,11.30
2016,09,22,05,22,11.30
2016,09,22,05,23,11.40
2016,09,22,05,24,11.40
2016,09,22,05,25,11.40
2016,09,22,05,26,11.50
2016,09,22,05,27,11.50
2016,09,22,05,28,11.50
2016,09,22,05,29,11.60
2016,09,22,05,30,11.60
2016,09,22,05,31,11.60
2016,09,22,05,32,11.70
2016,09,22,05,33,11.70
2016,09,22,05,34,11.70
2016,09,22,05,35,11.70
2016,09,22,05,36,11.80
2016,09,22,05,37,11.80
2016,09,22,05,38,11.80
2016,09,22,05,39,11.80
2016,09,22,05,40,11.90
2016,09,22,05,41,11.90
2016,09,22,05,42,11.90
2016,09,22,05,43,11.90
2016,09,22,05,44,11.90
2016,09,22,05,45,11.90
2016,09,22,05,46,12.00
2016,09,22,05,47,12.00
2016,09,22,05,48,12.00
2016,09,22,05,49,11.90
2016,09,22,05,50,11.90
2016,09,22,05,51,11.90
2016,09,22,05,52,11.90
2016,09,22,05,53,12.00
2016,09,22,05,54,12.00
2016,09,22,05,55,12.00
2016,09,22,05,56,12.00
2016,09,22,05,57,12.00
2016,09,22,05,58,12.00
2016,09,22,05,59,12.00
2016,09,22,06,00,12.00
2016,09,22,06,01,12.00
2016,09,22,06,02,12.00
2016,09,22,06,03,11.90
2016,09,22,06,04,11.90
2016,09,22,06,05,11.90
2016,09,22,06,06,11.90
2016,09,22,06,07,11.80
2016,09,22,06,08,11.80
2016,09,22,06,09,11.80
2016,09,22,06,10,11.80
2016,09,22,06,11,11.70
2016,09,22,06,12,11.70
2016,09,22,06,13,11.60
2016,09,22,06,14,11.40
2016,09,22,06,15,11.20
2016,09,22,06,16,11.10
2016,09,22,06,17,10.90
2016,09,22,06,18,10.70
2016,09,22,06,19,10.60
2016,09,22,06,20,10.40
2016,09,22,06,21,10.20
2016,09,22,06,22,10.10
2016,09,22,06,23,9.90
2016,09,22,06,24,9.80
2016,09,22,06,25,9.70
2016,09,22,06,26,9.60
2016,09,22,06,27,9.50
2016,09,22,06,28,9.40
2016,09,22,06,29,9.30
2016,09,22,06,30,9.30
2016,09,22,06,31,9.20
2016,09,22,06,32,9.20
2016,09,22,06,33,9.10
2016,09,22,06,34,9.10
2016,09,22,06,35,9.10
2016,09,22,06,36,9.00
2016,09,22,06,37,9.00
2016,09,22,06,38,8.90
2016,09,22,06,39,8.90
2016,09,22,06,40,8.90
2016,09,22,06,41,8.90
2016,09,22,06,42,8.80
2016,09,22,06,43,8.80
2016,09,22,06,44,8.80
2016,09,22,06,45,8.80
2016,09,22,06,46,8.80
2016,09,22,06,47,8.70
2016,09,22,06,48,8.70
2016,09,22,06,49,8.70
2016,09,22,06,50,8.70
2016,09,22,06,51,8.60
2016,09,22,06,52,8.60
2016,09,22,06,53,8.60
2016,09,22,06,54,8.50
2016,09,22,06,55,8.50
2016,09,22,06,56,8.40
2016,09,22,06,57,8.40
2016,09,22,06,58,8.40
2016,09,22,06,59,8.40
2016,09,22,07,00,8.30
2016,09,22,07,01,8.30
2016,09,22,07,02,8.30
2016,09,22,07,03,8.30
2016,09,22,07,04,8.20
2016,09,22,07,05,8.20
2016,09,22,07,06,8.20
2016,09,22,07,07,8.20
2016,09,22,07,08,8.10
2016,09,22,07,09,8.10
2016,09,22,07,10,8.10
2016,09,22,07,11,8.10
2016,09,22,07,12,8.10
2016,09,22,07,13,8.00
2016,09,22,07,14,8.00
2016,09,22,07,15,8.00
2016,09,22,07,16,8.00
2016,09,22,07,17,8.00
2016,09,22,07,18,8.00
2016,09,22,07,19,7.90
2016,09,22,07,20,7.90
2016,09,22,07,21,7.90
2016,09,22,07,22,7.90
2016,09,22,07,23,7.90
2016,09,22,07,24,7.80
2016,09,22,07,25,7.80
2016,09,22,07,26,7.90
2016,09,22,07,27,7.90
2016,09,22,07,28,7.90
2016,09,22,07,29,7.90
2016,09,22,07,30,7.90
2016,09,22,07,31,8.00
2016,09,22,07,32,8.00
2016,09,22,07,33,8.00
2016,09,22,07,34,8.00
2016,09,22,07,35,8.00
2016,09,22,07,36,8.00
2016,09,22,07,37,8.00
2016,09,22,07,38,8.00
2016,09,22,07,39,8.00
2016,09,22,07,40,8.00
2016,09,22,07,41,8.10
2016,09,22,07,42,8.10
2016,09,22,07,43,8.10
2016,09,22,07,44,8.10
2016,09,22,07,45,8.20
2016,09,22,07,46,8.30
2016,09,22,07,47,8.30
2016,09,22,07,48,8.40
2016,09,22,07,49,8.40
2016,09,22,07,50,8.40
2016,09,22,07,51,8.50
2016,09,22,07,52,8.50
2016,09,22,07,53,8.50
2016,09,22,07,54,8.60
2016,09,22,07,55,8.60
2016,09,22,07,56,8.60
2016,09,22,07,57,8.70
2016,09,22,07,58,8.70
2016,09,22,07,59,8.70
2016,09,22,08,00,8.80
2016,09,22,08,01,8.90
2016,09,22,08,02,8.90
2016,09,22,08,03,9.00
2016,09,22,08,04,9.10
2016,09,22,08,05,9.20
2016,09,22,08,06,9.30
2016,09,22,08,07,9.30
2016,09,22,08,08,9.40
2016,09,22,08,09,9.50
2016,09,22,08,10,9.60
2016,09,22,08,11,9.60
2016,09,22,08,12,9.70
2016,09,22,08,13,9.80
2016,09,22,08,14,9.80
2016,09,22,08,15,9.90
2016,09,22,08,16,9.90
2016,09,22,08,17,10.00
2016,09,22,08,18,10.10
2016,09,22,08,19,10.10
2016,09,22,08,20,10.20
2016,09,22,08,21,10.30
2016,09,22,08,22,10.30
2016,09,22,08,23,10.40
2016,09,22,08,24,10.50
2016,09,22,08,25,10.50
2016,09,22,08,26,10.60
2016,09,22,08,27,10.70
2016,09,22,08,28,10.80
2016,09,22,08,29,10.90
2016,09,22,08,30,11.00
2016,09,22,08,31,11.10
2016,09,22,08,32,11.10
2016,09,22,08,33,11.20
2016,09,22,08,34,11.30
2016,09,22,08,35,11.40
2016,09,22,08,36,11.50
2016,09,22,08,37,11.60
2016,09,22,08,38,11.70
2016,09,22,08,39,11.80
2016,09,22,08,40,11.80
2016,09,22,08,41,11.90
2016,09,22,08,42,12.00
2016,09,22,08,43,12.10
2016,09,22,08,44,12.10
2016,09,22,08,45,12.20
2016,09,22,08,46,12.30
2016,09,22,08,47,12.40
2016,09,22,08,48,12.40
2016,09,22,08,49,12.50
2016,09,22,08,50,12.60
2016,09,22,08,51,12.60
2016,09,22,08,52,12.60
2016,09,22,08,53,12.70
2016,09,22,08,54,12.70
2016,09,22,08,55,12.70
2016,09,22,08,56,12.70
2016,09,22,08,57,12.70
2016,09,22,08,58,12.70
2016,09,22,08,59,12.70
2016,09,22,09,00,12.70
2016,09,22,09,01,12.70
2016,09,22,09,02,12.70
2016,09,22,09,03,12.80
2016,09,22,09,04,12.80
2016,09,22,09,05,12.80
2016,09,22,09,06,12.80
2016,09,22,09,07,12.80
2016,09,22,09,08,12.80
2016,09,22,09,09,12.90
2016,09,22,09,10,12.90
2016,09,22,09,11,12.90
2016,09,22,09,12,13.00
2016,09,22,09,13,13.00
2016,09,22,09,14,13.00
2016,09,22,09,15,13.10
2016,09,22,09,16,13.10
2016,09,22,09,17,13.10
2016,09,22,09,18,13.10
2016,09,22,09,19,13.10
2016,09,22,09,20,13.10
2016,09,22,09,21,13.10
2016,09,22,09,22,13.20
2016,09,22,09,23,13.20
2016,09,22,09,24,13.20
2016,09,22,09,25,13.20
2016,09,22,09,26,13.20
2016,09,22,09,27,13.20
2016,09,22,09,28,13.20
2016,09,22,09,29,13.30
2016,09,22,09,30,13.30
2016,09,22,09,31,13.30
2016,09,22,09,32,13.30
2016,09,22,09,33,13.30
2016,09,22,09,34,13.40
2016,09,22,09,35,13.40
2016,09,22,09,36,13.40
2016,09,22,09,37,13.50
2016,09,22,09,38,13.50
2016,09,22,09,39,13.50
2016,09,22,09,40,13.50
2016,09,22,09,41,13.60
2016,09,22,09,42,13.60
2016,09,22,09,43,13.60
2016,09,22,09,44,13.60
2016,09,22,09,45,13.70
2016,09,22,09,46,13.80
2016,09,22,09,47,13.90
2016,09,22,09,48,14.00
2016,09,22,09,49,14.10
2016,09,22,09,50,14.10
2016,09,22,09,51,14.20
2016,09,22,09,52,14.20
2016,09,22,09,53,14.30
2016,09,22,09,54,14.30
2016,09,22,09,55,14.30
2016,09,22,09,56,14.40
2016,09,22,09,57,14.40
2016,09,22,09,58,14.50
2016,09,22,09,59,14.60
2016,09,22,10,00,14.70
2016,09,22,10,01,14.70
2016,09,22,10,02,14.80
2016,09,22,10,03,14.90
2016,09,22,10,04,15.00
2016,09,22,10,05,15.00
2016,09,22,10,06,15.00
2016,09,22,10,07,15.00
2016,09,22,10,08,15.00
2016,09,22,10,09,15.00
2016,09,22,10,10,15.00
2016,09,22,10,11,15.00
2016,09,22,10,12,14.90
2016,09,22,10,13,14.80
2016,09,22,10,14,14.80
2016,09,22,10,15,14.80
2016,09,22,10,16,14.80
2016,09,22,10,17,14.80
2016,09,22,10,18,14.80
2016,09,22,10,19,14.80
2016,09,22,10,20,14.90
2016,09,22,10,21,14.90
2016,09,22,10,22,15.00
2016,09,22,10,23,15.00
2016,09,22,10,24,15.00
2016,09,22,10,25,15.00
2016,09,22,10,26,15.00
2016,09,22,10,27,15.00
2016,09,22,10,28,15.00
2016,09,22,10,29,15.00
2016,09,22,10,30,15.00
2016,09,22,10,31,14.90
2016,09,22,10,32,14.90
2016,09,22,10,33,14.90
2016,09,22,10,34,15.00
2016,09,22,10,35,15.00
2016,09,22,10,36,15.00
2016,09,22,10,37,15.00
2016,09,22,10,38,15.00
2016,09,22,10,39,15.00
2016,09,22,10,40,15.00
2016,09,22,10,41,15.20
2016,09,22,10,42,15.30
2016,09,22,10,43,15.30
2016,09,22,10,44,15.40
2016,09,22,10,45,15.40
2016,09,22,10,46,15.40
2016,09,22,10,47,15.40
2016,09,22,10,48,15.40
2016,09,22,10,49,15.30
2016,09,22,10,50,15.30
2016,09,22,10,51,15.20
2016,09,22,10,52,15.20
2016,09,22,10,53,15.10
2016,09,22,10,54,15.00
2016,09,22,10,55,15.00
2016,09,22,10,56,15.00
2016,09,22,10,57,15.00
2016,09,22,10,58,15.00
2016,09,22,10,59,15.00
2016,09,22,11,00,15.00
2016,09,22,11,01,15.00
2016,09,22,11,02,15.00
2016,09,22,11,03,14.90
2016,09,22,11,04,14.90
2016,09,22,11,05,14.80
2016,09,22,11,06,14.80
2016,09,22,11,07,14.80
2016,09,22,11,08,14.80
2016,09,22,11,09,14.80
2016,09,22,11,10,14.80
2016,09,22,11,11,14.80
2016,09,22,11,12,14.90
2016,09,22,11,13,14.90
2016,09,22,11,14,14.90
2016,09,22,11,15,14.90
2016,09,22,11,16,14.90
2016,09,22,11,17,14.90
2016,09,22,11,18,14.90
2016,09,22,11,19,15.00
2016,09,22,11,20,15.00
2016,09,22,11,21,15.00
2016,09,22,11,22,15.00
2016,09,22,11,23,15.00
2016,09,22,11,24,15.00
2016,09,22,11,25,15.00
2016,09,22,11,26,15.00
2016,09,22,11,27,15.00
2016,09,22,11,28,15.00
2016,09,22,11,29,15.00
2016,09,22,11,30,15.00
2016,09,22,11,31,15.00
2016,09,22,11,32,15.00
2016,09,22,11,33,15.00
2016,09,22,11,34,15.00
2016,09,22,11,35,15.00
2016,09,22,11,36,15.00
2016,09,22,11,37,15.00
2016,09,22,11,38,15.00
2016,09,22,11,39,15.00
2016,09,22,11,40,15.10
2016,09,22,11,41,15.20
2016,09,22,11,42,15.20
2016,09,22,11,43,15.20
2016,09,22,11,44,15.20
2016,09,22,11,45,15.30
2016,09,22,11,46,15.20
2016,09,22,11,47,15.20
2016,09,22,11,48,15.20
2016,09,22,11,49,15.20
2016,09,22,11,50,15.20
2016,09,22,11,51,15.20
2016,09,22,11,52,15.20
2016,09,22,11,53,15.20
2016,09,22,11,54,15.20
2016,09,22,11,55,15.20
2016,09,22,11,56,15.20
2016,09,22,11,57,15.20
2016,09,22,11,58,15.20
2016,09,22,11,59,15.20
2016,09,22,12,00,15.10
2016,09,22,12,01,15.00
2016,09,22,12,02,15.00
2016,09,22,12,03,15.00
2016,09,22,12,04,15.00
2016,09,22,12,05,15.00
2016,09,22,12,06,15.00
2016,09,22,12,07,15.00
2016,09,22,12,08,15.00
2016,09,22,12,09,15.10
2016,09,22,12,10,15.10
2016,09,22,12,11,15.20
2016,09,22,12,12,15.30
2016,09,22,12,13,15.30
2016,09,22,12,14,15.40
2016,09,22,12,15,15.40
2016,09,22,12,16,15.40
2016,09,22,12,17,15.50
2016,09,22,12,18,15.50
2016,09,22,12,19,15.50
2016,09,22,12,20,15.40
2016,09,22,12,21,15.40
2016,09,22,12,22,15.50
2016,09,22,12,23,15.50
2016,09,22,12,24,15.60
2016,09,22,12,25,15.60
2016,09,22,12,26,15.60
2016,09,22,12,27,15.70
2016,09,22,12,28,15.70
2016,09,22,12,29,15.60
2016,09,22,12,30,15.60
2016,09,22,12,31,15.50
2016,09,22,12,32,15.50
2016,09,22,12,33,15.60
2016,09,22,12,34,15.60
2016,09,22,12,35,15.60
2016,09,22,12,36,15.60
2016,09,22,12,37,15.60
2016,09,22,12,38,15.70
2016,09,22,12,39,15.70
2016,09,22,12,40,15.70
2016,09,22,12,41,15.70
2016,09,22,12,42,15.70
2016,09,22,12,43,15.70
2016,09,22,12,44,15.70
2016,09,22,12,45,15.70
2016,09,22,12,46,15.70
2016,09,22,12,47,15.80
2016,09,22,12,48,15.70
2016,09,22,12,49,15.70
2016,09,22,12,50,15.70
2016,09,22,12,51,15.70
2016,09,22,12,52,15.60
2016,09,22,12,53,15.60
2016,09,22,12,54,15.60
2016,09,22,12,55,15.60
2016,09,22,12,56,15.70
2016,09,22,12,57,15.70
2016,09,22,12,58,15.70
2016,09,22,12,59,15.80
2016,09,22,13,00,15.80
2016,09,22,13,01,15.90
2016,09,22,13,02,15.90
2016,09,22,13,03,15.90
2016,09,22,13,04,16.00
2016,09,22,13,05,16.10
2016,09,22,13,06,16.20
2016,09,22,13,07,16.20
2016,09,22,13,08,16.20
2016,09,22,13,09,16.30
2016,09,22,13,10,16.30
2016,09,22,13,11,16.30
2016,09,22,13,12,16.40
2016,09,22,13,13,16.40
2016,09,22,13,14,16.40
2016,09,22,13,15,16.40
2016,09,22,13,16,16.50
2016,09,22,13,17,16.50
2016,09,22,13,18,16.50
2016,09,22,13,19,16.60
2016,09,22,13,20,16.60
2016,09,22,13,21,16.60
2016,09,22,13,22,16.70
2016,09,22,13,23,16.80
2016,09,22,13,24,16.80
2016,09,22,13,25,16.80
2016,09,22,13,26,16.90
2016,09,22,13,27,16.90
2016,09,22,13,28,16.90
2016,09,22,13,29,16.90
2016,09,22,13,30,16.90
2016,09,22,13,31,17.00
2016,09,22,13,32,17.00
2016,09,22,13,33,17.00
2016,09,22,13,34,16.90
2016,09,22,13,35,17.00
2016,09,22,13,36,17.00
2016,09,22,13,37,17.10
2016,09,22,13,38,17.10
2016,09,22,13,39,17.20
2016,09,22,13,40,17.20
2016,09,22,13,41,17.20
2016,09,22,13,42,17.20
2016,09,22,13,43,17.20
2016,09,22,13,44,17.20
2016,09,22,13,45,17.20
2016,09,22,13,46,17.20
2016,09,22,13,47,17.30
2016,09,22,13,48,17.40
2016,09,22,13,49,17.40
2016,09,22,13,50,17.40
2016,09,22,13,51,17.40
2016,09,22,13,52,17.40
2016,09,22,13,53,17.30
2016,09,22,13,54,17.30
2016,09,22,13,55,17.20
2016,09,22,13,56,17.10
2016,09,22,13,57,17.10
2016,09,22,13,58,17.00
2016,09,22,13,59,17.00
2016,09,22,14,00,17.00
2016,09,22,14,01,17.10
2016,09,22,14,02,17.10
2016,09,22,14,03,17.00
2016,09,22,14,04,17.00
2016,09,22,14,05,17.00
2016,09,22,14,06,17.00
2016,09,22,14,07,17.00
2016,09,22,14,08,16.90
2016,09,22,14,09,16.80
2016,09,22,14,10,16.80
2016,09,22,14,11,16.80
2016,09,22,14,12,16.80
2016,09,22,14,13,16.80
2016,09,22,14,14,16.70
2016,09,22,14,15,16.70
2016,09,22,14,16,16.70
2016,09,22,14,17,16.70
2016,09,22,14,18,16.70
2016,09,22,14,19,16.80
2016,09,22,14,20,16.80
2016,09,22,14,21,16.90
2016,09,22,14,22,16.90
2016,09,22,14,23,16.90
2016,09,22,14,24,17.00
2016,09,22,14,25,17.10
2016,09,22,14,26,17.20
2016,09,22,14,27,17.20
2016,09,22,14,28,17.20
2016,09,22,14,29,17.30
2016,09,22,14,30,17.40
2016,09,22,14,31,17.40
2016,09,22,14,32,17.50
2016,09,22,14,33,17.60
2016,09,22,14,34,17.60
2016,09,22,14,35,17.70
2016,09,22,14,36,17.70
2016,09,22,14,37,17.70
2016,09,22,14,38,17.60
2016,09,22,14,39,17.50
2016,09,22,14,40,17.50
2016,09,22,14,41,17.50
2016,09,22,14,42,17.50
2016,09,22,14,43,17.40
2016,09,22,14,44,17.30
2016,09,22,14,45,17.30
2016,09,22,14,46,17.30
2016,09,22,14,47,17.40
2016,09,22,14,48,17.40
2016,09,22,14,49,17.50
2016,09,22,14,50,17.50
2016,09,22,14,51,17.60
2016,09,22,14,52,17.50
2016,09,22,14,53,17.60
2016,09,22,14,54,17.60
2016,09,22,14,55,17.70
2016,09,22,14,56,17.70
2016,09,22,14,57,17.80
2016,09,22,14,58,17.70
2016,09,22,14,59,17.70
2016,09,22,15,00,17.70
2016,09,22,15,01,17.60
2016,09,22,15,02,17.60
2016,09,22,15,03,17.60
2016,09,22,15,04,17.50
2016,09,22,15,05,17.50
2016,09,22,15,06,17.40
2016,09,22,15,07,17.40
2016,09,22,15,08,17.40
2016,09,22,15,09,17.50
2016,09,22,15,10,17.50
2016,09,22,15,11,17.40
2016,09,22,15,12,17.40
2016,09,22,15,13,17.50
2016,09,22,15,14,17.50
2016,09,22,15,15,17.50
2016,09,22,15,16,17.60
2016,09,22,15,17,17.60
2016,09,22,15,18,17.60
2016,09,22,15,19,17.60
2016,09,22,15,20,17.70
2016,09,22,15,21,17.70
2016,09,22,15,22,17.70
2016,09,22,15,23,17.70
2016,09,22,15,24,17.70
2016,09,22,15,25,17.60
2016,09,22,15,26,17.60
2016,09,22,15,27,17.60
2016,09,22,15,28,17.60
2016,09,22,15,29,17.50
2016,09,22,15,30,17.50
2016,09,22,15,31,17.50
2016,09,22,15,32,17.60
2016,09,22,15,33,17.60
2016,09,22,15,34,17.60
2016,09,22,15,35,17.60
2016,09,22,15,36,17.60
2016,09,22,15,37,17.60
2016,09,22,15,38,17.60
2016,09,22,15,39,17.70
2016,09,22,15,40,17.80
2016,09,22,15,41,17.80
2016,09,22,15,42,17.80
2016,09,22,15,43,17.80
2016,09,22,15,44,17.90
2016,09,22,15,45,17.90
2016,09,22,15,46,17.80
2016,09,22,15,47,17.70
2016,09,22,15,48,17.60
2016,09,22,15,49,17.50
2016,09,22,15,50,17.50
2016,09,22,15,51,17.40
2016,09,22,15,52,17.40
2016,09,22,15,53,17.30
2016,09,22,15,54,17.30
2016,09,22,15,55,17.30
2016,09,22,15,56,17.30
2016,09,22,15,57,17.20
2016,09,22,15,58,17.20
2016,09,22,15,59,17.20
2016,09,22,16,00,17.10
2016,09,22,16,01,17.10
2016,09,22,16,02,17.10
2016,09,22,16,03,17.00
2016,09,22,16,04,17.00
2016,09,22,16,05,16.90
2016,09,22,16,06,16.90
2016,09,22,16,07,16.90
2016,09,22,16,08,16.90
2016,09,22,16,09,16.90
2016,09,22,16,10,16.90
2016,09,22,16,11,16.90
2016,09,22,16,12,16.90
2016,09,22,16,13,16.90
2016,09,22,16,14,16.90
2016,09,22,16,15,16.90
2016,09,22,16,16,16.90
2016,09,22,16,17,16.90
2016,09,22,16,18,16.90
2016,09,22,16,19,16.90
2016,09,22,16,20,16.90
2016,09,22,16,21,16.90
2016,09,22,16,22,16.90
2016,09,22,16,23,16.90
2016,09,22,16,24,16.90
2016,09,22,16,25,16.90
2016,09,22,16,26,16.90
2016,09,22,16,27,17.00
2016,09,22,16,28,17.10
2016,09,22,16,29,17.10
2016,09,22,16,30,17.20
2016,09,22,16,31,17.10
2016,09,22,16,32,17.10
2016,09,22,16,33,17.20
2016,09,22,16,34,17.20
2016,09,22,16,35,17.30
2016,09,22,16,36,17.30
2016,09,22,16,37,17.30
2016,09,22,16,38,17.30
2016,09,22,16,39,17.30
2016,09,22,16,40,17.30
2016,09,22,16,41,17.20
2016,09,22,16,42,17.20
2016,09,22,16,43,17.20
2016,09,22,16,44,17.10
2016,09,22,16,45,17.00
2016,09,22,16,46,17.00
2016,09,22,16,47,16.90
2016,09,22,16,48,16.90
2016,09,22,16,49,16.90
2016,09,22,16,50,17.00
2016,09,22,16,51,17.00
2016,09,22,16,52,17.10
2016,09,22,16,53,17.10
2016,09,22,16,54,17.20
2016,09,22,16,55,17.20
2016,09,22,16,56,17.20
2016,09,22,16,57,17.20
2016,09,22,16,58,17.20
2016,09,22,16,59,17.20
2016,09,22,17,00,17.20
2016,09,22,17,01,17.20
2016,09,22,17,02,17.20
2016,09,22,17,03,17.20
2016,09,22,17,04,17.20
2016,09,22,17,05,17.10
2016,09,22,17,06,17.10
2016,09,22,17,07,17.10
2016,09,22,17,08,17.10
2016,09,22,17,09,17.10
2016,09,22,17,10,17.10
2016,09,22,17,11,17.10
2016,09,22,17,12,17.10
2016,09,22,17,13,17.10
2016,09,22,17,14,17.10
2016,09,22,17,15,17.20
2016,09,22,17,16,17.20
2016,09,22,17,17,17.20
2016,09,22,17,18,17.10
2016,09,22,17,19,17.10
2016,09,22,17,20,17.10
2016,09,22,17,21,17.10
2016,09,22,17,22,17.10
2016,09,22,17,23,17.10
2016,09,22,17,24,17.10